Location: Little Italy
(37.8008°N, 122.4108°W)
Time: 06:33:19
(UTC+00:00)

Cosmos 2369 - Pass Details

Date: 29 October 2020
Orbit: 841 x 854 km, 71.0° (Epoch: 02 December)

Event Time Altitude Azimuth Distance (km) Brightness Sun altitude
Exits shadow 12:08:27 22° 356° (N) 1,767 5.3 -29.0°
Maximum altitude 12:11:56 51° 64° (ENE) 1,046 4.4 -28.3°
Drops below altitude 10° 12:17:24 10° 140° (SE) 2,450 6.5 -27.2°
Sets 12:19:54 0° 145° (SE) 3,381 7.2 -26.7°
